Starlink 6166

operational
NORAD ID: 56383 Int'l Des: 2023-061 Owner: SPXS Country: US Constellation: starlink
LEOCIRCULAR

Starlink 6166について

説明を読み込み中...

リアルタイム位置

3D地球を読み込み中...

次回通過

高度履歴

Altitude vs Time

uPlot chart will show altitude changes over time

軌道要素

1 56383U 23061K 25259.17165239 .00001117 00000-0 97762-4 0 9999
2 56383 43.0032 65.6549 0001268 254.3233 105.7470 15.02536406130508
Epoch: Sep 16, 2025 • Age: 13 hours

現在のステータス

高度 562.8 km
速度 7.59 km/s
衛星直下点 41.91°N, 86.49°W
打ち上げ日 May 4, 2023
運用期間 2.3 years
タイプ internet

技術仕様

分類 Payload
質量 305.00 kg
乾燥質量 290.00 kg
総質量 305.00 kg
長さ 0.20 m
直径 2.80 m
スパン 9.00 m
形状 Box + pan
製造者 SPXS
バスタイプ Starlink
フェーズステータス In Orbit
所有者/国 SPXS/US

大規模コンステレーション

Loading constellations...